Wind_Speed
5 4 5 4 4 4 3 3 3 3 3 3 3 3 4 4 4 4 4 4 4 5 5 4 4 4 4 4 4 4 3 4 4 4 4 4 5 5 5 5 5 5 5
6 6 6 5 5 5 5 4 4 4 4 4 4 4 5 5 5 5 5 5 4 5 5 5 5 5 5 5 5 5 4 4 5 5 5 5 5 5 6 6 5 6 6
6 6 6 6 6 6 6 5 5 5 5 5 5 5 6 6 6 6 6 5 5 5 5 6 6 6 6 6 6 5 5 5 6 6 6 7 7 7 7 7 7 7 7
6 6 6 7 7 7 7 7 6 6 6 6 6 6 6 6 6 6 7 7 6 6 6 6 7 7 7 7 6 6 6 7 7 7 8 8 9 9 9 9 9 8 8
6 6 7 7 7 7 7 7 7 6 6 6 6 6 6 6 7 7 7 7 7 7 7 7 8 8 8 7 8 7 8 8 8 8 8 9 10 10 10 10 10 9 9
5 6 6 7 6 6 6 6 6 6 6 6 7 7 7 7 7 7 7 7 8 8 8 8 9 9 9 8 8 8 9 9 9 9 9 9 10 10 10 10 10 10 10
5 5 6 6 6 6 6 6 7 7 7 7 7 7 7 7 7 7 8 8 8 8 9 9 9 10 10 10 9 9 9 10 10 9 10 9 9 9 10 10 11 11 11
5 5 5 5 6 6 6 7 7 7 7 7 7 7 7 7 7 7 8 9 9 9 9 10 10 10 10 11 11 11 11 11 11 11 10 10 10 10 11 11 12 12 12
5 5 5 5 6 6 6 7 7 7 7 7 7 7 7 7 7 8 8 9 10 10 10 11 11 11 11 12 12 12 12 12 12 12 12 12 12 12 12 13 13 13 13
5 4 5 5 5 6 6 6 6 6 6 7 7 7 8 8 8 8 8 9 9 10 11 11 12 12 13 13 13 13 13 13 14 13 14 14 14 14 14 14 14 14 14
5 4 5 5 5 5 6 6 6 6 7 7 8 8 8 8 9 9 9 10 10 10 11 12 12 13 13 14 14 14 14 14 14 15 15 15 15 14 14 14 14 14 14
5 5 5 5 5 5 6 6 6 7 8 8 8 9 9 9 9 10 10 11 11 11 11 12 12 13 13 14 14 14 14 15 15 15 15 15 15 15 14 14 14 15 14
5 5 6 6 6 6 6 6 6 7 8 9 9 9 9 9 9 10 10 11 11 12 12 12 12 13 13 14 14 14 14 15 15 15 15 14 14 15 15 14 14 14 15
5 5 6 6 6 6 7 7 7 7 8 9 9 9 9 9 10 10 11 11 12 13 13 13 13 13 13 14 14 14 14 14 14 14 14 14 13 13 14 14 13 13 14
6 6 6 7 7 7 7 8 8 9 10 10 10 10 10 10 10 11 11 11 12 12 12 12 13 13 13 14 14 14 13 13 14 13 13 13 13 13 13 13 13 13 13
6 7 8 7 7 8 8 8 9 10 10 10 11 11 11 11 12 12 12 12 12 12 12 12 13 13 13 13 13 13 13 13 14 14 14 13 13 13 13 13 13 13 13
8 8 8 8 8 8 9 9 10 10 11 12 12 12 12 12 12 13 13 13 13 13 13 13 13 13 13 13 13 13 13 13 13 13 13 13 13 13 13 13 13 13 13
9 9 9 9 9 10 10 11 11 11 12 12 13 13 13 13 13 13 13 13 13 13 14 14 13 13 13 13 13 13 13 12 13 13 13 13 13 13 13 14 14 14 13
10 10 10 10 10 11 11 11 12 12 12 13 13 13 13 13 14 14 14 14 14 14 14 14 14 14 13 13 13 14 14 13 13 13 13 13 13 13 14 14 14 14 14
10 11 10 11 11 11 12 12 12 12 12 13 14 14 14 14 14 14 14 14 14 14 14 14 14 14 14 14 14 14 14 14 14 14 14 15 15 15 15 15 15 15 15
11 11 11 11 11 11 11 11 11 12 13 14 14 14 14 14 14 15 15 14 15 14 14 15 15 14 15 15 15 15 15 15 15 15 15 15 16 17 17 17 16 16 16
11 11 12 12 11 12 12 11 11 12 12 13 14 14 14 15 15 15 15 15 15 15 15 15 15 15 15 16 16 16 16 16 16 16 16 16 17 17 17 17 17 17 17
11 11 11 12 12 12 12 12 12 12 13 13 13 14 14 15 15 15 15 15 15 15 15 15 16 16 16 16 16 16 17 17 17 16 16 16 17 17 18 18 18 18 18
11 11 12 12 12 12 12 13 13 13 13 13 13 14 14 15 15 15 15 16 16 15 15 15 16 16 16 17 17 16 17 17 17 16 16 16 17 17 18 19 19 18 18
12 12 12 12 12 12 13 13 13 13 13 14 14 14 15 15 15 15 15 16 15 16 16 16 16 17 17 17 17 17 17 17 16 17 17 16 17 18 19 19 19 18 19
13 13 13 13 12 13 13 13 13 13 14 14 15 15 15 16 15 16 16 16 16 17 17 17 17 17 18 18 17 17 17 17 17 17 17 17 17 18 18 19 19 18 19
Wind_Direction
254 262 260 254 260 263 269 270 272 272 274 275 268 271 269 270 271 269 264 271 265 259 263 257 260 262 264 263 258 258 264 263 265 268 262 252 249 247 247 247 247 246 247
261 265 265 260 259 260 264 268 278 281 278 277 281 273 267 269 271 270 265 265 261 259 260 260 265 266 263 260 257 255 263 271 268 270 266 260 258 253 251 254 253 255 254
266 268 266 261 260 261 267 273 275 280 283 278 278 275 269 269 270 268 266 265 263 262 261 262 266 267 264 261 261 258 267 273 268 269 269 263 258 255 255 255 256 258 258
264 268 269 266 261 261 266 270 273 273 277 275 275 276 276 277 271 262 263 262 265 264 262 265 266 267 264 261 259 262 270 273 272 270 272 269 263 256 254 256 258 258 257
266 264 263 263 262 261 262 266 270 272 274 274 272 276 281 280 275 266 263 262 266 268 268 266 266 266 270 273 263 264 270 271 274 276 275 270 261 254 253 256 257 258 259
262 261 264 261 260 258 259 263 266 270 271 269 273 277 277 279 278 270 262 266 269 271 271 269 269 268 271 274 270 267 271 274 275 276 278 272 259 253 253 255 259 260 261
262 262 261 261 262 263 262 263 266 272 271 273 275 276 278 279 277 277 269 269 268 271 272 271 270 269 273 274 274 272 274 275 274 276 277 268 257 256 257 259 260 260 262
257 262 265 263 262 264 265 265 268 270 269 274 277 277 276 277 276 274 272 272 272 275 275 272 270 272 275 274 270 270 272 271 272 272 271 263 260 262 263 264 265 264 263
255 261 268 269 268 266 266 270 274 271 267 272 277 279 278 279 279 277 274 273 271 273 275 273 271 271 272 271 269 269 271 270 271 270 268 265 264 265 265 266 266 266 267
251 260 267 270 269 269 268 270 272 269 267 270 276 280 283 285 284 282 278 276 275 273 275 272 270 271 271 271 270 269 268 269 270 271 269 267 266 265 265 265 266 267 267
252 264 276 278 274 274 273 274 272 268 267 271 277 280 283 283 285 284 281 280 278 276 276 275 272 273 272 271 271 270 268 269 270 272 271 270 268 267 266 266 266 265 266
259 268 280 286 282 281 280 280 276 273 271 274 280 283 284 285 285 282 282 281 279 277 276 274 274 274 274 275 274 272 271 270 271 271 271 271 269 267 267 268 267 266 266
262 267 275 280 282 280 279 278 278 277 278 280 282 283 283 284 283 282 281 281 281 281 282 281 279 278 277 278 278 275 274 273 272 272 271 270 269 268 268 267 266 266 266
269 275 277 278 278 279 281 278 279 280 282 283 283 284 283 282 283 283 283 283 284 284 284 283 282 280 280 280 279 278 276 274 273 271 270 270 270 269 268 267 265 266 265
277 281 281 282 283 282 280 281 282 284 287 285 283 283 284 283 282 282 283 285 285 284 283 282 282 281 281 282 281 279 277 272 269 268 269 268 268 267 265 265 264 264 266
277 283 286 285 284 283 281 283 285 287 288 287 286 286 285 282 281 282 283 283 284 283 283 283 282 282 282 282 283 281 278 275 272 269 268 268 267 265 264 264 264 262 263
280 284 285 285 285 284 282 282 283 285 288 288 288 287 288 286 284 283 282 282 282 283 285 285 284 282 282 282 282 281 278 275 273 271 268 267 265 265 264 263 261 262 263
281 283 284 281 281 282 284 281 279 281 283 285 286 287 287 286 284 283 283 280 280 283 285 285 285 282 282 281 281 279 277 273 270 271 270 266 264 264 262 261 260 262 264
279 281 280 276 276 279 282 280 280 281 282 283 286 287 288 286 282 281 282 281 281 283 284 284 283 283 282 280 280 279 277 275 271 271 270 268 267 265 264 261 258 260 261
276 280 280 276 276 277 277 276 278 281 281 283 286 287 288 287 284 281 279 279 280 283 284 283 282 282 281 281 280 278 277 276 273 272 271 271 267 266 265 262 259 258 258
276 280 279 276 276 279 282 281 280 283 284 284 285 287 289 287 283 281 279 279 280 281 281 282 281 280 280 280 280 278 276 275 275 273 272 272 269 266 265 262 259 259 259
279 280 280 276 277 281 284 284 282 283 285 286 286 287 288 286 283 281 282 281 281 282 283 282 281 280 280 279 280 280 278 277 277 275 273 272 270 266 264 262 259 259 259
281 284 284 284 284 283 283 286 286 285 284 286 287 288 288 286 285 284 285 283 282 282 282 282 281 280 280 280 280 280 279 278 277 275 274 272 270 266 263 260 259 258 260
282 286 289 288 288 285 284 286 287 286 287 289 289 288 289 289 287 286 285 284 283 282 281 280 280 281 280 280 279 279 279 278 276 274 273 271 269 267 264 260 259 259 261
281 285 289 289 287 286 286 287 289 287 288 289 290 289 287 287 286 285 285 285 284 282 281 281 282 282 281 279 278 277 277 277 277 275 274 272 269 266 264 261 259 259 260
279 282 287 288 286 287 287 287 289 289 288 289 290 289 287 285 284 284 284 284 284 284 282 282 282 282 280 278 277 276 276 275 275 276 275 273 272 270 266 262 259 259 259
Height
5862 5862 5862 5862 5863 5863 5863 5863 5863 5863 5864 5864 5864 5864 5864 5865 5865 5865 5865 5866 5866 5867 5867 5867 5868 5868 5869 5869 5870 5870 5870 5871 5871 5871 5872 5872 5873 5873 5874 5875 5875 5876 5877
5861 5861 5862 5862 5862 5862 5862 5862 5862 5863 5863 5863 5863 5863 5864 5864 5864 5864 5864 5865 5865 5866 5866 5867 5867 5867 5868 5868 5869 5869 5870 5870 5870 5870 5871 5871 5872 5872 5873 5874 5874 5875 5875
5860 5861 5861 5861 5861 5861 5861 5861 5862 5862 5862 5862 5862 5862 5863 5863 5863 5864 5864 5864 5864 5865 5865 5866 5866 5866 5867 5867 5868 5868 5868 5869 5869 5869 5869 5870 5870 5871 5872 5872 5873 5874 5874
5859 5860 5860 5860 5860 5860 5860 5860 5860 5861 5861 5861 5861 5861 5862 5862 5862 5862 5863 5863 5863 5864 5864 5865 5865 5865 5865 5866 5867 5867 5867 5867 5867 5868 5868 5868 5868 5869 5870 5871 5871 5872 5873
5858 5859 5859 5859 5859 5859 5859 5859 5859 5859 5860 5860 5860 5860 5860 5861 5861 5861 5861 5862 5862 5862 5863 5863 5864 5864 5865 5865 5865 5866 5866 5866 5866 5866 5866 5865 5866 5866 5868 5869 5869 5870 5871
5857 5858 5858 5858 5858 5858 5858 5858 5858 5858 5858 5858 5859 5859 5859 5859 5859 5860 5860 5861 5861 5861 5861 5862 5862 5863 5863 5864 5864 5864 5864 5864 5864 5864 5864 5863 5863 5864 5866 5867 5867 5868 5869
5856 5856 5856 5857 5857 5857 5857 5857 5857 5857 5857 5857 5857 5858 5858 5858 5858 5858 5859 5859 5859 5860 5860 5860 5860 5861 5861 5862 5862 5862 5862 5863 5862 5862 5862 5861 5862 5863 5864 5865 5865 5866 5866
5855 5855 5855 5855 5855 5855 5856 5856 5856 5856 5856 5856 5856 5856 5856 5857 5857 5857 5857 5857 5858 5858 5858 5858 5858 5859 5859 5859 5860 5860 5860 5860 5860 5860 5860 5860 5861 5861 5862 5863 5863 5863 5863
5854 5854 5854 5854 5854 5854 5854 5855 5855 5855 5855 5855 5855 5855 5855 5855 5855 5855 5855 5855 5856 5856 5856 5856 5856 5856 5857 5857 5857 5857 5858 5858 5858 5858 5859 5859 5859 5859 5859 5860 5860 5861 5861
5853 5853 5853 5853 5853 5853 5853 5853 5853 5853 5853 5853 5853 5854 5854 5854 5853 5853 5853 5853 5854 5854 5854 5854 5854 5854 5854 5854 5854 5855 5855 5855 5855 5856 5856 5856 5856 5856 5857 5857 5857 5858 5858
5852 5852 5852 5852 5852 5852 5852 5852 5852 5852 5852 5852 5852 5852 5852 5852 5852 5852 5851 5851 5851 5851 5851 5851 5851 5851 5851 5851 5851 5852 5852 5852 5852 5853 5853 5853 5853 5853 5854 5854 5854 5855 5855
5851 5851 5851 5851 5850 5850 5850 5850 5850 5850 5851 5850 5850 5850 5850 5850 5850 5850 5849 5849 5849 5849 5849 5848 5848 5848 5848 5848 5848 5848 5849 5849 5849 5850 5850 5850 5850 5850 5851 5851 5851 5852 5852
5850 5850 5850 5849 5849 5849 5849 5849 5849 5849 5849 5849 5848 5848 5848 5848 5848 5847 5847 5847 5846 5846 5846 5846 5845 5845 5845 5845 5845 5845 5846 5846 5846 5846 5846 5846 5846 5847 5847 5848 5848 5848 5849
5848 5848 5848 5848 5848 5848 5848 5848 5847 5847 5847 5847 5846 5846 5846 5846 5845 5845 5845 5844 5844 5843 5843 5843 5842 5842 5842 5842 5842 5842 5842 5842 5842 5842 5842 5842 5843 5843 5844 5844 5844 5845 5845
5847 5847 5847 5847 5846 5846 5846 5846 5846 5845 5845 5845 5844 5844 5843 5843 5843 5842 5842 5842 5841 5841 5840 5840 5839 5839 5839 5839 5839 5839 5839 5839 5839 5839 5839 5839 5839 5840 5840 5841 5841 5841 5842
5845 5845 5845 5845 5844 5844 5844 5844 5843 5843 5843 5842 5842 5841 5841 5841 5840 5840 5839 5839 5838 5838 5837 5837 5836 5836 5836 5835 5835 5835 5835 5835 5835 5835 5835 5836 5836 5836 5837 5837 5838 5838 5839
5843 5843 5843 5842 5842 5842 5842 5841 5841 5841 5840 5840 5839 5839 5838 5838 5837 5837 5836 5836 5835 5834 5834 5834 5833 5833 5833 5832 5832 5831 5831 5831 5831 5831 5831 5832 5832 5832 5833 5833 5834 5834 5835
5841 5841 5840 5840 5840 5839 5839 5839 5838 5838 5838 5837 5837 5836 5835 5835 5834 5833 5833 5832 5832 5831 5831 5830 5830 5830 5829 5829 5828 5828 5828 5828 5828 5828 5828 5828 5828 5829 5829 5830 5830 5831 5831
5839 5839 5838 5838 5837 5837 5836 5836 5835 5835 5834 5834 5833 5833 5832 5831 5831 5830 5830 5829 5828 5828 5827 5827 5826 5826 5826 5825 5825 5824 5824 5824 5824 5824 5824 5824 5824 5825 5825 5826 5826 5827 5827
5837 5836 5836 5835 5835 5834 5833 5833 5832 5832 5831 5831 5830 5829 5829 5828 5827 5827 5826 5825 5825 5824 5824 5823 5823 5822 5822 5821 5821 5821 5820 5820 5820 5820 5820 5820 5820 5820 5821 5821 5822 5823 5823
5834 5833 5833 5832 5832 5831 5830 5830 5829 5829 5828 5827 5827 5826 5825 5824 5823 5823 5822 5821 5821 5820 5820 5819 5819 5818 5818 5817 5817 5817 5816 5816 5816 5815 5815 5815 5815 5816 5816 5817 5817 5818 5819
5831 5830 5830 5829 5828 5828 5827 5827 5826 5825 5825 5824 5823 5822 5821 5821 5820 5819 5818 5818 5817 5816 5816 5815 5815 5814 5814 5813 5813 5812 5812 5812 5811 5811 5810 5810 5810 5810 5811 5811 5812 5813 5814
5828 5827 5827 5826 5825 5824 5824 5823 5823 5822 5821 5821 5820 5819 5818 5817 5816 5815 5814 5814 5813 5812 5812 5811 5810 5810 5809 5809 5808 5808 5807 5807 5806 5806 5805 5804 5804 5804 5805 5805 5806 5808 5809
5825 5824 5823 5823 5822 5821 5821 5820 5819 5819 5818 5817 5816 5815 5814 5813 5812 5811 5811 5810 5809 5808 5807 5806 5806 5805 5804 5804 5803 5803 5802 5801 5801 5801 5800 5799 5799 5798 5799 5800 5801 5802 5803
5822 5821 5820 5820 5819 5818 5817 5816 5816 5815 5814 5813 5812 5811 5810 5809 5808 5807 5806 5806 5805 5804 5803 5802 5801 5800 5799 5799 5798 5797 5797 5796 5795 5795 5795 5794 5794 5793 5793 5794 5795 5796 5797
5819 5818 5817 5816 5815 5815 5814 5813 5812 5811 5810 5810 5809 5807 5806 5805 5804 5803 5802 5801 5800 5799 5798 5797 5795 5794 5794 5793 5793 5792 5792 5791 5791 5790 5789 5789 5788 5788 5788 5788 5789 5790 5791